Home   Weather   Salvador   Past weeks

Flag for Brazil Past Weather in Salvador, Bahia, Brazil — Yesterday and Last 2 Weeks

Now
77 °F

Passing clouds.


Feels Like: 78 °F
Forecast: 77 / 84 °F
Wind: 1 mph from West

Location: Salvador Aeroporto

Current Time: Apr 28, 2017 at 2:00:17 am

Latest Report: Apr 28, 2017 at 1:00 am


Visibility: N/A

Pressure: 29.95 "Hg

Humidity: 89%

Dew Point: 73 °F

Location of SalvadorLocation

Past Weather in Salvador — Graph

°F

Salvador Temperature Yesterday

Maximum temperature yesterday: 84 °F (at 12:00 pm)
Minimum temperature yesterday: 73 °F (at 6:00 am)
Average temperature yesterday: 80 °F

High & Low Weather Summary for the Past Weeks

 TemperatureHumidityPressure
High86 °F (Apr 13, 10:00 am)100% (Apr 14, 7:00 pm)30.04 "Hg (Apr 14, 7:00 pm)
Low39 °F (Apr 14, 7:00 pm)55% (Apr 20, 12:00 pm)29.86 "Hg (Apr 17, 2:00 pm)
Average80 °F76%29.94 "Hg
* Reported Apr 13 1:00 am — Apr 28 1:00 am, Salvador, Weather by CustomWeather, © 2017

Note: Actual official high and low records may vary slightly from our data, if they occured in-between our weather recording intervals... More about our weather records

Advertising

Salvador Weather History for the Previous 24 Hours

Scroll right to see more
 ConditionsComfort  
Time TempWeatherWind HumidityBarometerVisibility
1:00 am
Fri, Apr 28
77 °FPassing clouds.1 mph89%29.95 "HgN/A
12:00 am77 °FPassing clouds.5 mph89%29.95 "HgN/A
11:00 pm
Thu, Apr 27
77 °FPassing clouds.7 mph94%29.95 "HgN/A
10:00 pm79 °FPassing clouds.8 mph89%29.95 "Hg5 mi
9:00 pm77 °FLight rain. Fog.8 mph94%29.95 "Hg3 mi
8:00 pm79 °FPassing clouds.3 mph84%29.95 "HgN/A
7:00 pm79 °FScattered showers. Passing clouds.8 mph84%N/A5 mi
6:00 pm81 °FPassing clouds.8 mph79%29.92 "HgN/A
5:00 pm82 °FScattered clouds.9 mph74%29.92 "HgN/A
4:00 pm82 °FPassing clouds.12 mph74%29.89 "HgN/A
3:00 pm84 °FScattered clouds.10 mph70%29.89 "HgN/A
2:00 pm84 °FScattered clouds.12 mph74%29.92 "HgN/A
1:00 pm84 °FScattered clouds.10 mph70%29.92 "HgN/A
12:00 pm84 °FScattered clouds.9 mph74%29.95 "HgN/A
11:00 am82 °FScattered showers. Scattered clouds.6 mph79%N/AN/A
10:27 am79 °FScattered showers. Broken clouds.6 mph89%N/A5 mi
10:15 am77 °FRain. Fog.9 mph94%N/A2 mi
10:00 am79 °FLight rain. Fog.3 mph84%30.01 "Hg3 mi
9:00 am79 °FLight rain. Partly sunny.6 mph84%30.01 "Hg4 mi
8:00 am79 °FLight rain. Fog.9 mph89%29.98 "Hg3 mi
7:00 am81 °FScattered clouds.5 mph74%29.98 "HgN/A
6:00 am73 °FScattered clouds.2 mph94%29.95 "HgN/A
5:00 am75 °FPassing clouds.3 mph89%29.92 "HgN/A
4:00 am77 °FPassing clouds.2 mph83%29.92 "HgN/A
3:00 am77 °FPassing clouds.5 mph83%29.92 "HgN/A
2:00 am77 °FPassing clouds.8 mph89%29.92 "HgN/A
Weather by CustomWeather, © 2017

See weather overviewHow to use our weather pages